• In Österreich
  • Länderverzeichnis
  • Für 7 Tage
  • Wassertemperatur
  • Satellitenkarten
  • Wetterkarte
  • News
  • Widgets
  • user-avatar
    Anmelden

    Stündliche Wetter Kweta

    Heute, 21 Oktober, Sonntag

    Zeit Temperatur Niederschläge Wind Luftdruck Luftfeuchtigkeit
    00:00 +12°C° 0 mm 1 m/S 620 mmHg 18%
    01:00 +11°C° 0 mm 1 m/S 619 mmHg 19%
    02:00 +11°C° 0 mm 1 m/S 619 mmHg 19%
    03:00 +10°C° 0 mm 1 m/S 619 mmHg 19%
    04:00 +10°C° 0 mm 1 m/S 619 mmHg 20%
    05:00 +11°C° 0 mm 1 m/S 620 mmHg 19%
    06:00 +12°C° 0 mm 1 m/S 621 mmHg 17%
    07:00 +13°C° 0 mm 1 m/S 621 mmHg 16%
    08:00 +15°C° 0 mm 1 m/S 622 mmHg 15%
    09:00 +18°C° 0 mm 1 m/S 623 mmHg 13%
    10:00 +19°C° 0 mm 1 m/S 623 mmHg 11%
    11:00 +19°C° 0 mm 2 m/S 623 mmHg 10%
    12:00 +20°C° 0 mm 2 m/S 623 mmHg 9%
    13:00 +21°C° 0 mm 3 m/S 623 mmHg 8%
    14:00 +21°C° 0 mm 3 m/S 623 mmHg 9%
    15:00 +20°C° 0 mm 3 m/S 623 mmHg 9%
    16:00 +20°C° 0 mm 3 m/S 622 mmHg 10%
    17:00 +19°C° 0 mm 3 m/S 622 mmHg 11%
    18:00 +17°C° 0 mm 2 m/S 622 mmHg 12%
    19:00 +16°C° 0 mm 1 m/S 622 mmHg 14%
    20:00 +15°C° 0 mm 1 m/S 621 mmHg 14%
    21:00 +15°C° 0 mm 1 m/S 621 mmHg 15%
    22:00 +14°C° 0 mm 1 m/S 621 mmHg 16%
    23:00 +14°C° 0 mm 1 m/S 621 mmHg 17%

    Morgen, 22 Oktober, Montag

    Zeit Temperatur Niederschläge Wind Luftdruck Luftfeuchtigkeit
    00:00 +14°C° 0 mm 1 m/S 620 mmHg 17%
    01:00 +13°C° 0 mm 1 m/S 620 mmHg 18%
    02:00 +13°C° 0 mm 1 m/S 620 mmHg 19%
    03:00 +13°C° 0 mm 1 m/S 620 mmHg 20%
    04:00 +12°C° 0 mm 2 m/S 619 mmHg 21%
    05:00 +13°C° 0 mm 2 m/S 620 mmHg 20%
    06:00 +14°C° 0 mm 2 m/S 621 mmHg 19%
    07:00 +15°C° 0 mm 2 m/S 621 mmHg 18%
    08:00 +17°C° 0 mm 2 m/S 622 mmHg 18%
    09:00 +19°C° 0 mm 3 m/S 622 mmHg 18%
    10:00 +20°C° 0 mm 4 m/S 623 mmHg 18%
    11:00 +21°C° 0 mm 4 m/S 623 mmHg 18%
    12:00 +22°C° 0 mm 5 m/S 622 mmHg 18%
    13:00 +23°C° 0 mm 6 m/S 622 mmHg 18%
    14:00 +22°C° 0 mm 6 m/S 622 mmHg 18%
    15:00 +22°C° 0 mm 7 m/S 621 mmHg 19%
    16:00 +22°C° 0 mm 7 m/S 621 mmHg 19%
    17:00 +20°C° 0 mm 5 m/S 621 mmHg 21%
    18:00 +19°C° 0 mm 3 m/S 620 mmHg 23%
    19:00 +17°C° 0 mm 2 m/S 620 mmHg 25%
    20:00 +17°C° 0 mm 2 m/S 620 mmHg 26%
    21:00 +16°C° 0 mm 1 m/S 620 mmHg 27%
    22:00 +16°C° 0 mm 1 m/S 620 mmHg 28%
    23:00 +15°C° 0 mm 1 m/S 619 mmHg 29%

    übermorgen, 23 Oktober, Dienstag

    Zeit Temperatur Niederschläge Wind Luftdruck Luftfeuchtigkeit
    00:00 +15°C° 0 mm 1 m/S 619 mmHg 30%
    01:00 +14°C° 0 mm 1 m/S 619 mmHg 31%
    02:00 +14°C° 0 mm 1 m/S 618 mmHg 32%
    03:00 +14°C° 0 mm 1 m/S 618 mmHg 33%
    04:00 +13°C° 0 mm 1 m/S 618 mmHg 34%
    05:00 +14°C° 0 mm 2 m/S 618 mmHg 32%
    06:00 +15°C° 0 mm 2 m/S 619 mmHg 30%
    07:00 +16°C° 0 mm 2 m/S 620 mmHg 28%
    08:00 +18°C° 0 mm 3 m/S 620 mmHg 25%
    09:00 +19°C° 0 mm 4 m/S 621 mmHg 22%
    10:00 +21°C° 0 mm 5 m/S 622 mmHg 20%
    11:00 +22°C° 0 mm 6 m/S 621 mmHg 19%
    12:00 +23°C° 0 mm 7 m/S 621 mmHg 18%
    13:00 +23°C° 0 mm 8 m/S 621 mmHg 17%
    14:00 +23°C° 0 mm 7 m/S 621 mmHg 17%
    15:00 +22°C° 0 mm 7 m/S 620 mmHg 18%
    16:00 +22°C° 0 mm 7 m/S 620 mmHg 18%
    17:00 +21°C° 0 mm 5 m/S 620 mmHg 20%
    18:00 +19°C° 0 mm 4 m/S 620 mmHg 22%
    19:00 +18°C° 0 mm 2 m/S 620 mmHg 24%
    20:00 +17°C° 0 mm 2 m/S 619 mmHg 25%
    21:00 +16°C° 0 mm 2 m/S 619 mmHg 26%
    22:00 +16°C° 0 mm 1 m/S 619 mmHg 28%
    23:00 +15°C° 0 mm 1 m/S 619 mmHg 29%

    24 Oktober, Mittwoch

    Zeit Temperatur Niederschläge Wind Luftdruck Luftfeuchtigkeit
    00:00 +15°C° 0 mm 1 m/S 619 mmHg 30%
    01:00 +14°C° 0 mm 1 m/S 618 mmHg 31%
    02:00 +14°C° 0 mm 1 m/S 618 mmHg 32%
    03:00 +13°C° 0 mm 1 m/S 618 mmHg 33%
    04:00 +13°C° 0 mm 1 m/S 618 mmHg 34%
    05:00 +14°C° 0 mm 1 m/S 619 mmHg 32%
    06:00 +15°C° 0 mm 1 m/S 619 mmHg 30%
    07:00 +16°C° 0 mm 1 m/S 620 mmHg 28%
    08:00 +19°C° 0 mm 1 m/S 621 mmHg 25%
    09:00 +19°C° 0 mm 2 m/S 621 mmHg 23%
    10:00 +21°C° 0 mm 2 m/S 622 mmHg 20%
    11:00 +22°C° 0 mm 3 m/S 622 mmHg 19%
    12:00 +22°C° 0 mm 4 m/S 621 mmHg 18%
    13:00 +23°C° 0 mm 5 m/S 621 mmHg 17%
    14:00 +23°C° 0 mm 5 m/S 621 mmHg 17%
    15:00 +22°C° 0 mm 5 m/S 621 mmHg 18%
    16:00 +22°C° 0 mm 5 m/S 620 mmHg 19%
    17:00 +21°C° 0 mm 3 m/S 620 mmHg 22%
    18:00 +19°C° 0 mm 2 m/S 620 mmHg 24%
    19:00 +19°C° 0 mm 1 m/S 620 mmHg 26%
    20:00 +18°C° 0 mm 1 m/S 620 mmHg 27%
    21:00 +18°C° 0 mm 1 m/S 620 mmHg 28%
    22:00 +16°C° 0 mm 1 m/S 620 mmHg 29%
    23:00 +16°C° 0 mm 1 m/S 620 mmHg 30%

    25 Oktober, Donnerstag

    Zeit Temperatur Niederschläge Wind Luftdruck Luftfeuchtigkeit
    00:00 +15°C° 0 mm 1 m/S 619 mmHg 31%
    01:00 +15°C° 0 mm 1 m/S 619 mmHg 32%
    02:00 +14°C° 0 mm 1 m/S 619 mmHg 33%
    03:00 +14°C° 0 mm 1 m/S 619 mmHg 34%
    04:00 +13°C° 0 mm 1 m/S 618 mmHg 34%
    05:00 +14°C° 0 mm 1 m/S 619 mmHg 32%
    06:00 +15°C° 0 mm 1 m/S 620 mmHg 30%
    07:00 +16°C° 0 mm 1 m/S 621 mmHg 28%
    08:00 +18°C° 0 mm 2 m/S 622 mmHg 26%
    09:00 +20°C° 0 mm 2 m/S 622 mmHg 23%
    10:00 +22°C° 0 mm 3 m/S 623 mmHg 21%
    11:00 +22°C° 0 mm 3 m/S 623 mmHg 19%
    12:00 +23°C° 0 mm 4 m/S 622 mmHg 18%
    13:00 +23°C° 0 mm 4 m/S 622 mmHg 17%
    14:00 +23°C° 0 mm 4 m/S 622 mmHg 17%
    15:00 +23°C° 0 mm 4 m/S 622 mmHg 17%
    16:00 +22°C° 0 mm 3 m/S 622 mmHg 18%
    17:00 +21°C° 0 mm 3 m/S 622 mmHg 20%
    18:00 +19°C° 0 mm 2 m/S 621 mmHg 23%
    19:00 +19°C° 0 mm 1 m/S 621 mmHg 25%
    20:00 +18°C° 0 mm 1 m/S 621 mmHg 26%
    21:00 +18°C° 0 mm 1 m/S 621 mmHg 27%
    22:00 +16°C° 0 mm 1 m/S 621 mmHg 28%
    23:00 +16°C° 0 mm 1 m/S 621 mmHg 29%

    26 Oktober, Freitag

    Zeit Temperatur Niederschläge Wind Luftdruck Luftfeuchtigkeit
    00:00 +15°C° 0 mm 1 m/S 621 mmHg 30%
    01:00 +15°C° 0 mm 1 m/S 620 mmHg 31%
    02:00 +14°C° 0 mm 1 m/S 620 mmHg 32%
    03:00 +14°C° 0 mm 1 m/S 620 mmHg 33%
    04:00 +14°C° 0 mm 1 m/S 620 mmHg 33%
    05:00 +15°C° 0 mm 1 m/S 621 mmHg 31%
    06:00 +16°C° 0 mm 1 m/S 622 mmHg 29%
    07:00 +18°C° 0 mm 1 m/S 623 mmHg 27%
    08:00 +19°C° 0 mm 2 m/S 624 mmHg 27%
    09:00 +20°C° 0 mm 2 m/S 624 mmHg 26%
    10:00 +22°C° 0 mm 3 m/S 625 mmHg 25%
    11:00 +24°C° 0 mm 3 m/S 625 mmHg 24%
    12:00 +23°C° 0 mm 4 m/S 624 mmHg 23%
    13:00 +25°C° 0 mm 4 m/S 624 mmHg 22%
    14:00 +25°C° 0 mm 4 m/S 624 mmHg 23%
    15:00 +23°C° 0 mm 4 m/S 623 mmHg 23%
    16:00 +23°C° 0 mm 4 m/S 623 mmHg 24%
    17:00 +22°C° 0 mm 3 m/S 623 mmHg 27%
    18:00 +20°C° 0 mm 2 m/S 623 mmHg 30%
    19:00 +20°C° 0 mm 1 m/S 623 mmHg 33%
    20:00 +19°C° 0 mm 1 m/S 623 mmHg 34%
    21:00 +19°C° 0 mm 1 m/S 623 mmHg 36%
    22:00 +19°C° 0 mm 1 m/S 623 mmHg 37%
    23:00 +18°C° 0 mm 1 m/S 622 mmHg 39%
    Mehr zeigen